Waarnemingen

Advertentie
Mijn weer
Culdrose, Groot Brittannië (3809): temperatuur & dauwpunt: 14.06.2018 16:00:00 - 20.06.2018 16:00:00 (BST)Culdrose, Groot Brittannië (3809): windsnelheid & windstoten: 14.06.2018 16:00:00 - 20.06.2018 16:00:00 (BST)Culdrose, Groot Brittannië (3809): windrichting: 14.06.2018 16:00:00 - 20.06.2018 16:00:00 (BST)Culdrose, Groot Brittannië (3809): luchtdruk: 14.06.2018 16:00:00 - 20.06.2018 16:00:00 (BST)Culdrose, Groot Brittannië (3809): zicht: 14.06.2018 16:00:00 - 20.06.2018 16:00:00 (BST)Culdrose, Groot Brittannië (3809): neerslag: 14.06.2018 16:00:00 - 20.06.2018 16:00:00 (BST)
Datum & Tijd tt [°C] td [°C] ff [km/u] ff [kn] fx [km/u] fx [kn] dd ppp [hPa] vv [km] rr [mm]
20.06.2018 16:00:00 16,1 15,3 13 7 - - NW 1022,1 5 -
20.06.2018 15:00:00 15,7 15,6 16 9 - - WZW 1022,3 0,7 0,0
20.06.2018 14:00:00 15,8 15,3 22 12 - - ZW 1022,2 0,9 0,0
20.06.2018 13:00:00 15,9 15,5 16 9 - - ZW 1022,4 2,5 0,0
20.06.2018 12:00:00 15,6 15,1 22 12 - - ZW 1022,3 29 0,0
20.06.2018 11:00:00 14,9 14,8 22 12 - - ZW 1022,1 3,2 0,0
20.06.2018 10:00:00 14,8 14,7 16 9 - - ZW 1022,2 0,2 0,0
20.06.2018 09:00:00 14,6 14,5 18 10 - - ZW 1022,2 0,1 0,0
20.06.2018 08:00:00 14,3 14,1 18 10 - - ZZW 1022,0 0,1 0,0
20.06.2018 07:00:00 14,0 13,9 18 10 - - ZZW 1022,0 0,1 0,0
20.06.2018 06:00:00 13,8 13,6 18 10 - - ZW 1022,0 0,1 0,0
20.06.2018 05:00:00 13,7 13,6 18 10 - - ZW 1022,1 0,2 0,0
20.06.2018 04:00:00 13,8 13,6 18 10 - - ZZW 1022,2 0,2 0,2
20.06.2018 03:00:00 14,0 13,9 18 10 - - ZW 1022,5 0,2 0,0
20.06.2018 02:00:00 14,1 14,0 22 12 - - ZZW 1022,8 0,2 0,0
20.06.2018 01:00:00 14,3 14,0 16 9 - - ZW 1023,1 0,4 0,0
20.06.2018 00:00:00 14,5 13,9 15 8 - - ZW 1023,4 6 0,0
19.06.2018 23:00:00 14,6 14,1 15 8 - - ZW 1023,7 3,0 0,0
19.06.2018 22:00:00 14,9 14,6 11 6 - - ZW 1023,7 2,0 0,0
19.06.2018 21:00:00 15,0 14,7 15 8 - - ZW 1023,6 0,8 0,0
19.06.2018 20:00:00 15,2 14,9 13 7 - - ZW 1024,0 1,8 0,0
19.06.2018 19:00:00 15,4 15,0 11 6 - - ZW 1024,1 0,5 0,0
19.06.2018 18:00:00 15,5 15,0 9 5 - - ZW 1024,5 1,5 0,0
19.06.2018 17:00:00 15,9 15,1 11 6 - - ZW 1024,7 3,0 0,0
19.06.2018 16:00:00 16,3 15,2 15 8 - - ZW 1024,8 4,0 0,0
19.06.2018 15:00:00 16,9 15,3 16 9 - - ZW 1024,8 5 0,0
19.06.2018 14:00:00 17,1 15,4 18 10 - - ZW 1024,9 6 0,0
19.06.2018 13:00:00 17,0 16,3 16 9 - - ZW 1025,0 6 0,0
19.06.2018 12:00:00 16,0 15,9 13 7 - - WZW 1025,3 2,5 0,0
19.06.2018 11:00:00 15,9 15,7 13 7 - - ZW 1025,2 0,6 0,0
19.06.2018 10:00:00 15,2 15,1 15 8 - - WZW 1025,2 0,2 0,0
19.06.2018 09:00:00 14,8 14,7 11 6 - - WZW 1025,1 0,1 0,2
19.06.2018 08:00:00 14,8 14,6 13 7 - - ZW 1024,9 0,1 0,2
19.06.2018 07:00:00 14,5 14,3 11 6 - - ZW 1024,5 0,1 0,0
19.06.2018 06:00:00 14,3 14,2 13 7 - - ZW 1024,2 0,1 0,0
19.06.2018 05:00:00 14,3 14,2 11 6 - - WZW 1024,1 0,1 0,0
19.06.2018 04:00:00 14,3 14,2 11 6 - - WZW 1024,2 0,1 0,0
19.06.2018 03:00:00 14,4 14,2 11 6 - - WZW 1024,2 0,1 0,2
19.06.2018 02:00:00 14,4 14,2 9 5 - - WZW 1024,3 1,5 0,0
19.06.2018 01:00:00 14,5 14,3 11 6 - - WZW 1024,3 0,3 -
19.06.2018 00:00:00 14,6 14,4 13 7 - - WZW 1024,3 1,5 0,0
18.06.2018 23:00:00 14,8 14,6 15 8 - - WZW 1024,4 0,4 0,0
18.06.2018 22:00:00 14,7 14,5 13 7 - - W 1024,2 0,1 0,0
18.06.2018 21:00:00 14,7 14,5 16 9 - - WZW 1023,8 - 0,0
18.06.2018 20:00:00 14,9 14,6 16 9 - - WZW 1023,5 0,1 0,0
18.06.2018 19:00:00 15,1 14,7 18 10 - - WZW 1023,4 0,3 0,0
18.06.2018 18:00:00 15,1 14,4 16 9 - - WZW 1023,2 3,0 0,0
18.06.2018 17:00:00 15,5 14,8 11 6 - - WZW 1023,1 1,4 0,0
18.06.2018 16:00:00 15,5 15,0 16 9 - - WZW 1023,0 0,8 0,0
18.06.2018 15:00:00 15,6 15,3 15 8 - - WZW 1023,0 0,9 0,0
18.06.2018 14:00:00 15,2 14,9 15 8 - - WZW 1022,9 0,4 0,0
18.06.2018 13:00:00 15,0 14,7 15 8 - - ZW 1022,9 0,2 0,2
18.06.2018 12:00:00 14,5 14,2 18 10 - - ZW 1022,9 0,3 0,0
18.06.2018 11:00:00 14,6 13,3 16 9 - - ZW 1022,7 1,2 0,0
18.06.2018 10:00:00 15,0 13,0 11 6 - - WZW 1022,5 10 0,0
18.06.2018 09:00:00 14,9 12,2 16 9 - - W 1022,4 10 0,0
18.06.2018 08:00:00 14,3 11,4 15 8 - - W 1021,7 10 0,0
18.06.2018 07:00:00 13,6 11,3 18 10 - - W 1021,3 10 0,0
18.06.2018 06:00:00 13,2 11,4 15 8 - - W 1020,8 10 0,0
18.06.2018 05:00:00 12,9 11,5 18 10 - - W 1020,3 10 0,0
18.06.2018 04:00:00 13,3 12,2 15 8 - - W 1020,0 3,0 0,0
18.06.2018 03:00:00 13,4 13,0 16 9 - - W 1020,0 3,0 0,2
18.06.2018 02:00:00 13,5 12,7 13 7 - - W 1020,0 4,0 0,0
18.06.2018 01:00:00 13,9 11,8 26 14 - - W 1019,7 22 0,0
18.06.2018 00:00:00 13,9 13,0 15 8 - - WZW 1019,6 10 0,0
17.06.2018 23:00:00 14,1 12,4 15 8 - - W 1019,3 10 0,0
17.06.2018 22:00:00 14,1 12,8 18 10 - - W 1019,0 10 0,0
17.06.2018 21:00:00 14,3 13,0 24 13 - - W 1018,3 10 0,0
17.06.2018 20:00:00 14,6 13,7 16 9 - - WZW 1018,2 10 0,0
17.06.2018 19:00:00 14,6 14,3 15 8 - - WZW 1017,6 5 0,0
17.06.2018 18:00:00 14,9 14,6 18 10 - - WZW 1017,2 5 0,0
17.06.2018 17:00:00 15,1 14,8 24 13 - - WZW 1016,7 0,3 0,2
17.06.2018 16:00:00 15,2 15,0 18 10 - - WZW 1016,7 1,1 0,0
17.06.2018 15:00:00 15,0 14,7 21 11 - - WZW 1016,7 3,6 0,0
17.06.2018 14:00:00 15,4 15,1 26 14 - - ZW 1016,3 5 0,0
17.06.2018 13:00:00 15,3 15,0 28 15 - - ZW 1016,2 6 0,2
17.06.2018 12:00:00 14,7 14,4 31 17 46 25 ZW 1016,2 1,0 0,4
17.06.2018 11:00:00 13,9 13,6 34 18 - - ZZW 1016,3 1,5 1,4
17.06.2018 10:00:00 13,3 13,0 29 16 48 26 ZZW 1016,7 1,5 0,6
17.06.2018 09:00:00 13,2 12,7 29 16 46 25 ZZW 1017,0 4,1 0,4
17.06.2018 08:00:00 14,2 11,3 31 17 - - ZW 1016,9 18 0,0
17.06.2018 07:00:00 13,8 10,8 28 15 - - ZW 1016,9 22 0,0
17.06.2018 06:00:00 13,6 10,5 26 14 - - WZW 1017,0 23 0,0
17.06.2018 05:00:00 13,4 10,0 22 12 - - WZW 1016,9 24 0,0
17.06.2018 04:00:00 13,3 10,4 22 12 - - WZW 1017,3 21 0,0
17.06.2018 03:00:00 13,3 9,7 18 10 - - WZW 1017,6 24 0,0
17.06.2018 02:00:00 13,1 10,0 16 9 - - W 1017,9 22 0,0
17.06.2018 01:00:00 13,4 8,7 24 13 - - W 1018,3 26 0,0
17.06.2018 00:00:00 13,1 9,8 18 10 - - W 1018,1 25 0,0
16.06.2018 23:00:00 13,2 9,2 21 11 - - W 1018,2 25 0,0
16.06.2018 22:00:00 13,7 9,7 22 12 - - W 1017,8 24 0,0
16.06.2018 21:00:00 13,7 10,1 24 13 - - W 1017,2 24 0,0
16.06.2018 20:00:00 14,0 9,6 28 15 - - W 1017,2 23 0,0
16.06.2018 19:00:00 14,1 11,0 18 10 - - WZW 1016,9 21 0,0
16.06.2018 18:00:00 14,2 10,6 29 16 - - W 1016,7 24 0,0
16.06.2018 17:00:00 15,0 9,1 24 13 - - W 1016,8 27 0,0
16.06.2018 16:00:00 15,3 8,7 28 15 - - W 1016,2 28 0,0
16.06.2018 15:00:00 15,7 7,9 28 15 46 25 W 1015,9 30 0,0
16.06.2018 14:00:00 16,2 6,9 34 18 46 25 W 1015,4 27 0,0
16.06.2018 13:00:00 15,5 9,1 37 20 50 27 W 1014,9 22 0,0
16.06.2018 12:00:00 16,0 11,2 34 18 55 30 W 1014,4 19 0,0
16.06.2018 11:00:00 14,8 12,9 29 16 54 29 W 1013,8 17 0,0
16.06.2018 10:00:00 14,9 13,5 29 16 52 28 ZW 1013,3 10 0,0
16.06.2018 09:00:00 13,8 13,3 34 18 50 27 ZZW 1013,1 16 0,2
16.06.2018 08:00:00 13,3 12,6 34 18 48 26 ZZW 1013,3 3,8 0,2
16.06.2018 07:00:00 13,0 12,2 28 15 - - ZZW 1013,6 10 0,0
16.06.2018 06:00:00 12,7 11,9 21 11 - - ZZW 1013,9 15 0,0
16.06.2018 05:00:00 13,7 11,0 22 12 - - ZZW 1014,2 18 0,0
16.06.2018 04:00:00 13,0 10,9 24 13 - - ZZW 1014,6 20 0,0
16.06.2018 03:00:00 13,6 9,8 24 13 - - ZZW 1015,3 20 0,0
16.06.2018 02:00:00 13,6 9,5 24 13 - - ZW 1015,8 25 0,0
16.06.2018 01:00:00 13,4 9,6 21 11 - - ZZW 1016,2 26 0,0
16.06.2018 00:00:00 13,8 8,6 16 9 - - WZW 1016,7 28 0,0
15.06.2018 23:00:00 13,5 9,2 13 7 - - WZW 1017,1 10 0,0
15.06.2018 22:00:00 13,4 9,4 11 6 - - ZW 1017,4 10 0,0
15.06.2018 21:00:00 13,7 9,3 11 6 - - WZW 1017,7 10 0,0
15.06.2018 20:00:00 14,0 8,8 15 8 - - WZW 1018,1 10 0,0
15.06.2018 19:00:00 14,4 8,7 15 8 - - WZW 1017,5 10 0,0
15.06.2018 18:00:00 15,3 8,7 18 10 - - WZW 1018,0 10 0,0
15.06.2018 17:00:00 15,5 9,7 21 11 - - WZW 1018,5 10 0,0
15.06.2018 16:00:00 16,1 9,2 24 13 - - ZW 1018,5 28 0,0
15.06.2018 15:00:00 16,7 11,0 21 11 - - WZW 1019,0 10 0,0
15.06.2018 14:00:00 16,5 11,8 18 10 - - WZW 1019,0 25 0,0
15.06.2018 13:00:00 15,8 11,2 22 12 - - WZW 1019,0 25 0,0
15.06.2018 12:00:00 16,5 11,6 16 9 - - WZW 1019,0 10 0,0
15.06.2018 11:00:00 15,6 11,2 15 8 - - WZW 1019,0 10 0,0
15.06.2018 10:00:00 15,1 10,0 13 7 - - WZW 1018,9 10 0,0
15.06.2018 09:00:00 14,6 11,2 11 6 - - W 1018,7 10 0,0
15.06.2018 08:00:00 14,0 11,7 8 4 - - ZW 1018,6 10 0,0
15.06.2018 07:00:00 12,2 10,3 5 3 - - W 1018,6 20 0,0
15.06.2018 06:00:00 11,0 9,6 8 4 - - W 1018,5 10 0,0
15.06.2018 05:00:00 10,9 9,6 8 4 - - W 1018,3 10 0,0
15.06.2018 04:00:00 10,7 9,3 11 6 - - W 1018,6 10 0,0
15.06.2018 03:00:00 11,0 9,5 11 6 - - WNW 1018,6 10 0,0
15.06.2018 02:00:00 11,5 9,7 13 7 - - W 1018,7 10 0,0
15.06.2018 01:00:00 10,7 9,4 9 5 - - W 1019,1 10 0,0
15.06.2018 00:00:00 11,2 9,5 15 8 - - W 1018,8 15 0,0
14.06.2018 23:00:00 11,5 9,8 9 5 - - W 1018,6 10 0,0
14.06.2018 22:00:00 12,7 9,9 11 6 - - WNW 1018,5 15 0,0
14.06.2018 21:00:00 14,1 10,1 15 8 - - WNW 1018,2 10 0,0
14.06.2018 20:00:00 15,1 10,4 18 10 - - WNW 1017,8 10 0,0
14.06.2018 19:00:00 16,2 10,2 18 10 - - NW 1017,1 10 0,0
14.06.2018 18:00:00 15,9 10,5 18 10 - - NW 1017,1 10 0,0
14.06.2018 17:00:00 17,2 10,7 22 12 - - WNW 1016,8 20 0,0
14.06.2018 16:00:00 16,5 10,0 22 12 - - NW 1016,4 20 0,0

tt = temperatuur
td = dauwpunt
ff = windsnelheid
fx = windstoten
dd = windrichting
ppp = luchtdruk
vv = zicht
rr = neerslag

Weerstations in de omgeving